[[{"header":{"parameterUnit":"m.s-1","parameterCategory":1,"la1":30.2992,"la2":30.254,"lo1":-89.0895,"lo2":-89.0443,"dy":0.0025,"dx":0.0025,"nx":19,"ny":19,"refTime":"2026-04-09T21:00:00:Z","depth":0,"parameterNumber":2,"parameterNumberName":"U-component_of_WINDS"},"data":[0,0,0,-0.8588,-0.8589,-0.8631,-0.8631,-0.8693,-0.8694,0,0,0,0,0,0,0,0,0,0,0,-0.858,-0.8581,-0.8588,-0.8589,-0.8631,-0.8631,-0.8693,-0.8694,0,0,0,0,0,0,0,0,0,0,0,-0.858,-0.8581,-0.8581,-0.8589,-0.8631,-0.8631,-0.8693,-0.8659,0,0,0,0,0,0,0,0,0,0,-0.8617,-0.8613,-0.8581,-0.8581,-0.859,-0.8631,-0.8631,-0.8657,-0.8661,-0.8678,0,-0.8693,0,-0.8694,-0.8698,-0.8699,0,0,0,-0.8586,-0.861,-0.8617,-0.8581,-0.859,-0.8631,-0.8611,-0.8659,-0.8663,-0.8683,-0.8694,-0.8696,-0.8695,-0.8699,-0.8699,-0.8805,-0.8806,0,0,-0.8584,-0.859,-0.8614,-0.862,-0.8613,-0.861,-0.8613,-0.8661,-0.8674,-0.8694,-0.8697,-0.8697,-0.8699,-0.87,-0.8805,-0.8806,0,0,0,-0.8579,-0.8589,-0.8595,-0.8618,-0.8625,-0.8611,-0.8614,-0.8672,-0.8673,-0.8698,-0.8697,-0.87,-0.8701,-0.8804,-0.8805,-0.8842,0,0,0,-0.8578,-0.8586,-0.8594,-0.8598,-0.8624,-0.8649,-0.8624,-0.867,-0.8675,-0.8697,-0.87,-0.8701,-0.8803,-0.8805,-0.884,-0.8859,0,0,0,-0.8576,-0.8586,-0.8593,-0.8598,-0.8616,-0.8648,-0.8652,-0.8671,-0.8675,-0.8699,-0.8701,-0.8803,-0.8804,-0.8837,-0.8855,-0.8889,0,0,0,-0.8576,-0.8626,-0.8594,-0.865,-0.8616,-0.867,-0.8651,-0.8692,-0.8716,-0.87,-0.8803,-0.8805,-0.8837,-0.8853,-0.8886,-0.8918,-0.8932,0,0,-0.8643,-0.8635,-0.8667,-0.8639,-0.87,-0.8663,-0.873,-0.8748,-0.8745,-0.8786,-0.8788,-0.8841,-0.8855,-0.8888,-0.9007,-0.9018,0,0,0,-0.869,-0.8714,-0.8728,-0.8752,-0.8765,-0.8779,-0.8785,-0.8791,-0.8826,-0.8767,-0.8861,-0.887,-0.8889,-0.8904,-0.8914,-0.893,-0.8812,-0.8812,-0.8812,-0.8794,-0.8787,-0.884,-0.8837,-0.8861,-0.8866,-0.8884,-0.8894,-0.8881,-0.8903,-0.8915,-0.8988,-0.9006,-0.9013,-0.903,-0.8931,-0.8932,-0.8932,-0.8932,-0.8892,-0.8924,-0.8904,-0.8948,-0.894,-0.8978,-0.8985,-0.8974,-0.9009,-0.8978,-0.8995,-0.8962,-0.9025,-0.9039,-0.8935,-0.8934,-0.8934,-0.8933,-0.8933,-0.8959,-0.8973,-0.8979,-0.9012,-0.9039,-0.9035,-0.9069,-0.9061,-0.9054,-0.907,-0.9082,-0.9082,-0.908,-0.9076,-0.9077,-0.9077,-0.9077,-0.9077,-0.9077,-0.9027,-0.9033,-0.9061,-0.908,-0.9094,-0.9111,-0.9117,-0.9131,-0.9145,-0.9136,-0.9136,-0.9121,-0.9032,-0.901,-0.9081,-0.9081,-0.908,-0.908,-0.9079,-0.9129,-0.9104,-0.9149,-0.9163,-0.9184,-0.9211,-0.92,-0.9229,-0.9239,-0.9257,-0.9238,-0.9173,-0.9164,-0.9156,-0.9138,-0.9238,-0.9238,-0.9238,-0.9238,-0.9186,-0.918,-0.9224,-0.9247,-0.9268,-0.9263,-0.9314,-0.932,-0.9322,-0.9328,-0.9313,-0.9287,-0.928,-0.9276,-0.9266,-0.9248,-0.9375,-0.9375,-0.9375,-0.9249,-0.9245,-0.929,-0.929,-0.9306,-0.932,-0.9369,-0.9397,-0.9394,-0.938,-0.9333,-0.9327,-0.9287,-0.9274,-0.926,-0.9244,-0.9212,0,0]},{"header":{"parameterUnit":"m.s-1","parameterCategory":1,"la1":30.2992,"la2":30.254,"lo1":-89.0895,"lo2":-89.0443,"dy":0.0025,"dx":0.0025,"nx":19,"ny":19,"refTime":"2026-04-09T21:00:00:Z","depth":0,"parameterNumber":3,"parameterNumberName":"V-component_of_WINDS"},"data":[0,0,0,-0.5229,-0.523,-0.5306,-0.5306,-0.5393,-0.5393,0,0,0,0,0,0,0,0,0,0,0,-0.5197,-0.5198,-0.5229,-0.523,-0.5306,-0.5306,-0.5393,-0.5393,0,0,0,0,0,0,0,0,0,0,0,-0.5197,-0.5198,-0.5198,-0.523,-0.5306,-0.5306,-0.5392,-0.534,0,0,0,0,0,0,0,0,0,0,-0.5268,-0.523,-0.5197,-0.5198,-0.5231,-0.5306,-0.5306,-0.5337,-0.5343,-0.5353,0,-0.5357,0,-0.5376,-0.5398,-0.5398,0,0,0,-0.5238,-0.5225,-0.5253,-0.5198,-0.5231,-0.5306,-0.5274,-0.5341,-0.5347,-0.536,-0.5359,-0.5362,-0.5378,-0.5399,-0.5399,-0.5426,-0.5425,0,0,-0.5234,-0.5207,-0.5249,-0.5257,-0.5241,-0.5271,-0.5276,-0.5345,-0.5342,-0.5359,-0.5364,-0.5379,-0.5399,-0.54,-0.5426,-0.5426,0,0,0,-0.5216,-0.5204,-0.523,-0.5253,-0.5267,-0.5273,-0.5279,-0.5339,-0.535,-0.5366,-0.538,-0.54,-0.54,-0.5426,-0.5426,-0.5387,0,0,0,-0.5214,-0.5194,-0.5228,-0.5213,-0.5265,-0.5303,-0.5271,-0.5345,-0.5354,-0.538,-0.54,-0.5401,-0.5426,-0.5426,-0.5389,-0.5374,0,0,0,-0.5196,-0.5192,-0.5199,-0.5211,-0.5242,-0.5303,-0.5318,-0.5348,-0.5362,-0.5398,-0.5401,-0.5427,-0.5426,-0.539,-0.5376,-0.5372,0,0,0,-0.5169,-0.5166,-0.5198,-0.5201,-0.5241,-0.5278,-0.5318,-0.5347,-0.5373,-0.54,-0.5426,-0.5426,-0.5391,-0.5378,-0.5374,-0.5364,-0.5357,0,0,-0.515,-0.5162,-0.5166,-0.5197,-0.522,-0.5268,-0.5287,-0.5338,-0.5368,-0.5405,-0.5406,-0.5388,-0.5377,-0.5373,-0.5329,-0.5324,0,0,0,-0.5151,-0.5153,-0.5165,-0.5188,-0.5225,-0.5256,-0.5306,-0.5325,-0.5358,-0.538,-0.5387,-0.5381,-0.538,-0.5376,-0.5372,-0.5373,-0.5423,-0.5423,-0.5423,-0.5087,-0.5123,-0.5131,-0.5175,-0.5197,-0.5248,-0.527,-0.5304,-0.5336,-0.5337,-0.5348,-0.5317,-0.5312,-0.5309,-0.5309,-0.5346,-0.5346,-0.5346,-0.5346,-0.5063,-0.5072,-0.5111,-0.5134,-0.5172,-0.5192,-0.5242,-0.5263,-0.5289,-0.5312,-0.5313,-0.5334,-0.5301,-0.5304,-0.5343,-0.5344,-0.5344,-0.5344,-0.5344,-0.5025,-0.5035,-0.5057,-0.5092,-0.5116,-0.5163,-0.5184,-0.5219,-0.5253,-0.5254,-0.5269,-0.527,-0.5275,-0.5259,-0.5258,-0.5258,-0.5258,-0.5258,-0.5258,-0.4977,-0.5002,-0.5015,-0.5053,-0.5072,-0.5101,-0.5152,-0.5173,-0.5204,-0.5228,-0.5229,-0.526,-0.5291,-0.5298,-0.5257,-0.5257,-0.5257,-0.5257,-0.5257,-0.4939,-0.4953,-0.4972,-0.4991,-0.5039,-0.506,-0.5104,-0.5142,-0.5164,-0.5174,-0.5205,-0.5222,-0.5238,-0.5242,-0.5248,-0.5197,-0.5197,-0.5197,-0.5197,-0.4907,-0.4918,-0.4945,-0.4972,-0.5003,-0.5044,-0.5067,-0.5107,-0.5152,-0.5168,-0.518,-0.5191,-0.5194,-0.5209,-0.5214,-0.522,-0.5162,-0.5162,-0.5162,-0.4886,-0.4901,-0.4912,-0.4953,-0.4993,-0.5027,-0.5049,-0.5081,-0.5135,-0.5161,-0.5181,-0.5183,-0.5201,-0.5205,-0.5232,-0.5239,-0.5251,0,0]}]]